This is the latest recevied weather packets stored in our database for station/object KB3UMW-13. If no packets are shown the sender has not sent any weather packets the latest 10 day(s).
| Time | Temp. | Humidity | Pressure | Rain* | Wind** | Luminosity | Snow |
|---|---|---|---|---|---|---|---|
| 1778020409 | 18.89° C | 55% | 1011.1 hPa | 0 mm | - | 91 W/m² | - |
| 1778020105 | 18.89° C | 53% | 1011.4 hPa | 0 mm | - | 72 W/m² | - |
| 1778019801 | 19.44° C | 52% | 1011.3 hPa | 0 mm | - | 56 W/m² | - |
| 1778019499 | 19.44° C | 49% | 1011.1 hPa | 0 mm | - | 56 W/m² | - |
| 1778019195 | 20° C | 49% | 1011.3 hPa | 0 mm | - | 68 W/m² | - |
| 1778018893 | 20.56° C | 48% | 1011.2 hPa | 0 mm | - | 93 W/m² | - |
| 1778018589 | 20.56° C | 49% | 1011.3 hPa | 0 mm | - | 142 W/m² | - |
| 1778018288 | 20.56° C | 51% | 1011.2 hPa | 0 mm | - | 158 W/m² | - |
| 1778017985 | 20° C | 48% | 1011.3 hPa | 0 mm | - | 139 W/m² | - |
| 1778017683 | 20° C | 50% | 1011.3 hPa | 0 mm | - | 129 W/m² | - |
| 1778017380 | 20.56° C | 49% | 1011.4 hPa | 0 mm | - | 154 W/m² | - |
| 1778017077 | 20.56° C | 51% | 1011.2 hPa | 0 mm | - | 184 W/m² | - |
| 1778016775 | 20.56° C | 50% | 1011.3 hPa | 0 mm | - | 179 W/m² | - |
| 1778016470 | 20.56° C | 48% | 1011.3 hPa | 0 mm | - | 187 W/m² | - |
| 1778016168 | 20.56° C | 47% | 1011 hPa | 0 mm | - | 183 W/m² | - |
| 1778015864 | 20.56° C | 52% | 1011.2 hPa | 0 mm | - | 188 W/m² | - |
| 1778015562 | 21.11° C | 48% | 1010.8 hPa | 0 mm | - | 205 W/m² | - |
| 1778015258 | 21.11° C | 49% | 1011.1 hPa | 0 mm | - | 224 W/m² | - |
| 1778014955 | 21.11° C | 47% | 1010.8 hPa | 0 mm | - | 222 W/m² | - |
| 1778014652 | 21.11° C | 45% | 1011 hPa | 0 mm | - | 220 W/m² | - |
| 1778014350 | 21.11° C | 48% | 1011 hPa | 0 mm | - | 236 W/m² | - |
| 1778014046 | 21.11° C | 46% | 1011.2 hPa | 0 mm | - | 229 W/m² | - |
| 1778013745 | 21.67° C | 48% | 1011.1 hPa | 0 mm | - | 218 W/m² | - |
| 1778013441 | 21.67° C | 43% | 1011.1 hPa | 0 mm | - | 221 W/m² | - |
| 1778013138 | 21.67° C | 45% | 1011.2 hPa | 0 mm | - | 240 W/m² | - |
* Rain latest hour (hover to see other rain measurements)
** Current wind speed in m/s (hover to see current wind gust speed)